This is the latest recevied weather packets stored in our database for station/object IK2ILW-6. If no packets are shown the sender has not sent any weather packets the latest 10 day(s).
| Time | Temp. | Humidity | Pressure | Rain* | Wind** | Luminosity | Snow |
|---|---|---|---|---|---|---|---|
| 1778221896 | 5.56° C | 70% | 1016.5 hPa | 0 mm | - | 380 W/m² | - |
| 1778221585 | 6.11° C | 69% | 1016.5 hPa | 0 mm | - | 364 W/m² | - |
| 1778221288 | 6.11° C | 72% | 1016.5 hPa | 0 mm | - | 302 W/m² | - |
| 1778220993 | 6.11° C | 74% | 1016.5 hPa | 0 mm | - | 304 W/m² | - |
| 1778220697 | 6.11° C | 76% | 1016.4 hPa | 0 mm | - | 315 W/m² | - |
| 1778220402 | 5.56° C | 74% | 1016.4 hPa | 0 mm | - | 292 W/m² | - |
| 1778220087 | 6.11° C | 72% | 1016.4 hPa | 0 mm | - | 255 W/m² | - |
| 1778219792 | 6.11° C | 75% | 1016.3 hPa | 0 mm | - | 243 W/m² | - |
| 1778219496 | 6.11° C | 71% | 1016.3 hPa | 0 mm | - | 225 W/m² | - |
| 1778219200 | 6.11° C | 72% | 1016.2 hPa | 0 mm | - | 237 W/m² | - |
| 1778218885 | 5.56° C | 73% | 1016.2 hPa | 0 mm | - | 239 W/m² | - |
| 1778218592 | 5° C | 73% | 1016.1 hPa | 0 mm | - | 218 W/m² | - |
| 1778218298 | 5° C | 74% | 1016.1 hPa | 0 mm | - | 197 W/m² | - |
| 1778218003 | 5° C | 74% | 1016.1 hPa | 0 mm | - | 188 W/m² | - |
| 1778217689 | 5° C | 74% | 1016.1 hPa | 0 mm | - | 158 W/m² | - |
| 1778217393 | 5° C | 73% | 1016.1 hPa | 0 mm | - | 134 W/m² | - |
| 1778217098 | 4.44° C | 72% | 1016.1 hPa | 0 mm | - | 135 W/m² | - |
| 1778216802 | 4.44° C | 73% | 1016 hPa | 0 mm | - | 121 W/m² | - |
| 1778216487 | 3.89° C | 74% | 1015.9 hPa | 0 mm | - | 105 W/m² | - |
| 1778216192 | 3.89° C | 75% | 1015.9 hPa | 0 mm | - | 28 W/m² | - |
| 1778215897 | 3.89° C | 76% | 1015.9 hPa | 0 mm | - | 26 W/m² | - |
| 1778215587 | 3.89° C | 77% | 1015.9 hPa | 0 mm | - | 25 W/m² | - |
| 1778215293 | 3.89° C | 77% | 1015.8 hPa | 0 mm | - | 21 W/m² | - |
| 1778214996 | 3.89° C | 77% | 1015.9 hPa | 0 mm | - | 18 W/m² | - |
| 1778214701 | 3.89° C | 76% | 1015.9 hPa | 0 mm | - | 16 W/m² | - |
* Rain latest hour (hover to see other rain measurements)
** Current wind speed in m/s (hover to see current wind gust speed)